, NV

(GMT )
Las Vegas

Weather History for KBJN - October, 2012

Change the Weather History Date:

Tuesday, October 9, 2012

  Actual Average Record
Temperature  
Mean Temperature 58 °F -  
Max Temperature 71 °F - - ()
Min Temperature 44 °F - - ()
Degree Days  
Heating Degree Days 8    
Growing Degree Days 8 (Base 50)    
Moisture  
Dew Point 12 °F    
Average Humidity 18    
Maximum Humidity 27    
Minimum Humidity 9    
Precipitation  
Precipitation 0.00 in - - ()
Sea Level Pressure  
Sea Level Pressure 29.58 in    
Wind  
Wind Speed 9 mph (SW)    
Max Wind Speed 20 mph    
Max Gust Speed 29 mph    
Visibility 10 miles    
Events      
T = Trace of Precipitation, MM = Missing Value Source: NWS Daily Summary

Daily Weather History Graph

Daily Weather History Graph

Search for Another Location

Airport or City:

Trip Planner

Search our weather history database for the weather conditions in past years. The results will help you decide how hot, cold, wet, or windy it might be!

Date:

Astronomy

Oct. 09, 2012 Rise Set
Actual Time 6:48 AM PDT 6:15 PM PDT
Civil Twilight 6:21 AM PDT 6:41 PM PDT
Nautical Twilight 5:51 AM PDT 7:11 PM PDT
Astronomical Twilight 5:21 AM PDT 7:42 PM PDT
Moon 12:35 AM PDT (10/9) 2:39 PM PDT (10/9)
Length of Visible Light 12h 19m
Length of Day
11h 27m
Waning Crescent, 35% of the Moon is Illuminated
Oct 9
Waning Crescent
Oct 15
New
Oct 21
First Quarter
Oct 29
Full
Nov 6
Last Quarter

Hourly Weather History & Observations

Time (PDT) Temp. Windchill Dew Point Humidity Pressure Visibility Wind Dir Wind Speed Gust Speed Precip Events Conditions
12:56 AM 50.0 °F - 16.0 °F 26% 29.55 in 10.0 mi SW 9.2 mph - N/A   Clear
1:56 AM 46.9 °F - 12.9 °F 25% 29.57 in 10.0 mi West 4.6 mph - N/A   Clear
2:56 AM 46.9 °F - 12.0 °F 24% 29.56 in 10.0 mi SW 4.6 mph - N/A   Clear
3:56 AM 45.0 °F 39.7 °F 10.9 °F 25% 29.57 in 10.0 mi NW 10.4 mph - N/A   Clear
4:56 AM 44.1 °F 39.0 °F 10.9 °F 26% 29.57 in 10.0 mi WNW 9.2 mph - N/A   Clear
5:56 AM 45.0 °F 39.7 °F 12.0 °F 26% 29.58 in 10.0 mi NW 10.4 mph - N/A   Clear
6:56 AM 44.1 °F - 12.0 °F 27% 29.61 in 10.0 mi Calm Calm - N/A   Clear
7:56 AM 54.0 °F - 12.9 °F 20% 29.61 in 10.0 mi NW 4.6 mph - N/A   Clear
8:56 AM 59.0 °F - 15.1 °F 18% 29.60 in 10.0 mi ENE 3.5 mph - N/A   Clear
9:56 AM 62.1 °F - 14.0 °F 15% 29.62 in 10.0 mi SSE 8.1 mph - N/A   Clear
10:56 AM 66.0 °F - 9.0 °F 11% 29.59 in 10.0 mi SSE 13.8 mph - N/A   Clear
11:56 AM 70.0 °F - 9.0 °F 9% 29.57 in 10.0 mi South 13.8 mph 26.5 mph N/A   Clear
12:56 PM 70.0 °F - 9.0 °F 9% 29.55 in 10.0 mi South 19.6 mph 25.3 mph N/A   Clear
1:56 PM 71.1 °F - 8.1 °F 9% 29.55 in 10.0 mi SSE 15.0 mph 28.8 mph N/A   Clear
2:56 PM 71.1 °F - 9.0 °F 9% 29.55 in 10.0 mi South 18.4 mph 26.5 mph N/A   Clear
3:56 PM 71.1 °F - 10.0 °F 9% 29.55 in 10.0 mi South 19.6 mph 24.2 mph N/A   Partly Cloudy
5:56 PM 64.9 °F - 10.9 °F 12% 29.57 in 10.0 mi SSW 9.2 mph - N/A   Scattered Clouds
7:56 PM 60.1 °F - 10.9 °F 14% 29.59 in 10.0 mi Calm Calm - N/A   Partly Cloudy
8:56 PM 55.0 °F - 10.9 °F 17% 29.60 in 10.0 mi WNW 5.8 mph - N/A   Scattered Clouds
9:56 PM 52.0 °F - 12.9 °F 21% 29.60 in 10.0 mi WNW 6.9 mph - N/A   Clear
10:56 PM 52.0 °F - 15.1 °F 23% 29.60 in 10.0 mi West 5.8 mph - N/A   Partly Cloudy
11:56 PM 51.1 °F - 17.1 °F 26% 29.58 in 10.0 mi WSW 4.6 mph - N/A   Partly Cloudy